User: anonymous   Login
Location: Unspecified
(0.0000°N, 0.0000°E)
Time: 22:58:13
(UTC+00:00)
Language:

RAX-2 - Orbit

View from above orbital plane
View from above orbital plane
View from above satellite
View from above satellite

Ground track
Ground track

The orbit data is extracted from the following two-line orbital elements,

1 37853U 11061D   23083.63726459  .00048465  00000-0  19344-2 0  9993
2 37853 101.7053 341.3349 0133199 328.0538  31.2653 15.17127319623511
Epoch (UTC): 24 March 2023 15:17:39
Eccentricity: 0.0133199
inclination: 101.7053°
perigee height: 423 km
apogee height: 606 km
right ascension of ascending node: 341.3349°
argument of perigee: 328.0538°
revolutions per day: 15.17127319
mean anomaly at epoch: 31.2653°
orbit number at epoch: 62351

The dashed part of the orbit path shows where the satellite is in the earth's shadow,  

DLR